Theta_e
318 325 327 327 327 326 325 325 325 324 324 324 323 322 323 323 322 322 322 321 321 322
310 314 323 326 327 328 328 327 328 327 325 324 323 323 322 323 322 322 323 322 322 321
307 309 313 318 324 326 327 327 327 328 328 326 325 323 323 323 324 323 323 323 322 322
306 307 309 311 315 321 325 326 326 327 327 327 326 325 324 324 324 323 323 323 322 321
305 306 307 309 312 316 319 323 325 325 326 326 326 325 324 324 324 323 322 321 321 320
303 303 304 306 309 313 315 318 321 323 323 324 325 324 324 323 323 322 321 321 320 319
302 304 304 305 307 309 312 315 317 320 322 323 324 324 323 322 321 321 321 320 320 319
302 303 303 304 304 306 308 312 315 317 319 320 321 323 322 320 320 319 318 318 318 318
299 300 300 300 301 303 305 309 312 314 315 316 318 310 306 313 318 317 316 315 316 316
296 296 296 297 298 298 301 305 308 311 312 313 316 306 304 302 316 316 316 314 313 310
291 291 292 293 293 294 297 299 301 305 308 310 312 305 303 300 311 316 314 314 310 303
288 289 290 290 291 292 292 293 295 297 300 301 306 302 301 301 308 308 307 307 305 304
287 287 288 289 289 290 291 291 292 293 296 296 300 301 299 300 306 303 297 291 295 292
286 286 287 287 288 290 289 289 291 291 293 294 295 298 297 298 304 299 295 295 291 292
Wind_Speed
8 8 11 15 13 12 11 12 15 16 19 20 20 19 17 13 15 17 16 19 17 12
7 8 10 15 14 13 14 13 15 17 18 20 20 19 19 15 17 18 18 18 17 15
7 7 9 11 14 16 16 16 16 16 18 19 20 20 20 17 18 18 16 15 18 17
7 7 9 11 13 13 14 16 17 17 17 17 19 19 20 20 20 21 20 19 18 20
7 7 9 11 12 12 14 14 16 17 17 16 17 19 20 21 19 21 21 21 18 19
8 8 8 10 12 12 13 14 14 15 18 18 17 18 20 21 21 21 21 20 20 20
10 11 11 10 11 13 13 14 14 15 16 17 16 17 18 20 20 20 20 20 20 20
12 13 13 13 13 14 15 14 13 14 15 15 14 12 16 16 18 18 19 18 19 19
12 12 12 13 13 14 15 15 13 13 14 15 12 14 17 15 15 17 17 17 17 17
10 11 12 12 13 14 15 14 15 14 13 15 16 16 17 18 15 14 16 16 14 13
8 10 11 12 14 15 13 13 13 14 14 14 14 15 17 18 16 17 16 17 15 13
7 9 12 13 14 14 12 13 13 13 13 14 16 14 17 15 14 16 15 14 14 17
7 9 12 13 13 11 12 14 12 14 13 15 17 15 17 17 12 14 8 6 8 16
7 8 11 14 11 12 14 15 14 14 13 14 14 14 14 19 16 10 8 9 7 7
Wind_Direction
263 245 235 237 238 238 233 225 223 222 222 221 218 218 216 213 214 210 211 212 212 210
284 266 256 246 241 244 242 241 230 220 219 222 222 221 218 217 215 215 212 214 211 212
281 283 281 270 252 244 245 245 245 235 225 217 219 218 218 219 219 218 219 216 213 214
281 283 284 277 270 259 251 245 247 248 241 226 219 222 219 219 220 221 223 221 217 215
276 280 287 283 275 269 261 253 247 247 248 240 224 218 223 223 222 224 223 224 221 218
286 275 273 283 284 277 270 262 255 248 246 245 233 223 223 224 227 224 227 223 220 217
311 306 293 285 288 285 280 272 262 253 250 246 241 231 224 222 224 230 223 224 221 214
313 314 315 306 299 295 289 279 269 262 254 250 245 237 226 220 219 223 228 224 228 220
310 308 307 306 301 295 289 284 273 264 258 253 246 233 223 222 222 221 227 225 223 224
301 305 308 301 298 293 291 288 279 265 254 250 249 228 220 220 232 225 222 222 223 225
290 298 301 303 300 299 292 288 285 277 262 256 251 230 221 218 231 234 223 219 206 194
284 293 302 302 301 300 294 289 284 282 280 264 258 234 223 215 230 234 228 219 201 197
273 278 292 293 295 296 289 283 281 274 266 265 265 252 226 218 231 232 222 207 208 198
276 275 286 286 286 292 293 285 278 271 267 260 251 252 238 231 232 221 209 209 200 196